Погода в Андалусии

США     31°18′49″N   86°28′43″W
темп.,
°C
ветер,
м/с
пор.,
м/с
влажн.,
%
обл.,
%
осадки,
мм/ч
давл.,
гПа
погр.,
м
7 марта, вс
вс700:00+8ссв26833 0.0 1024161
03:00+7ссв25897 0.0 1025121
06:00+6ссв38924 0.0 1026229
09:00+11св36470 0.0 1029540
12:00+16ссв35300 0.0 10291207
15:00+17ссв35320 0.0 10271407
18:00+12с235917 0.0 102945
21:00+9ссв235890 0.0 103132
8 марта, пн
пн800:00+7св236381 0.0 103154
03:00+6св236690 0.0 103253
06:00+4всв127148 0.0 103322
09:00+13в234721 0.0 1035413
12:00+18вюв223211 0.0 10351019
15:00+19в22320 0.0 10321244
18:00+12вюв22520 0.0 103323
21:00+10вюв22600 0.0 103423
9 марта, вт
вт900:00+7юв11650 0.0 103422
03:00+6всв11670 0.0 103322
06:00+5вюв22690 0.0 103434
09:00+13юв365083 0.0 1035424
12:00+18юв353372 0.0 10341002
15:00+20вюв343351 0.0 10311281
18:00+13юв225658 0.0 103125
21:00+9ю12850 0.0 103222
10 марта, ср
ср1000:00+9вюв12920 0.0 103122
03:00+8вюв239038 0.0 102950
06:00+8вюв278059 0.0 1029175
09:00+16юв487014 0.0 1031717
12:00+22ююв35479 0.0 10301408
15:00+21ю454339 0.0 10271424
18:00+15ю277155 0.0 1027166
21:00+11ю22920 0.0 102863
11 марта, чт
чт1100:00+11ююв25930 0.0 1027106
03:00+11вюв259327 0.0 1027105
06:00+10вюв399062 0.0 1027229
09:00+18юв486934 0.0 1028632
12:00+23юв354954 0.0 10271336
15:00+24ю34430 0.0 10251611
18:00+17ю276838 0.0 1025165
21:00+13ююв129215 0.0 102626